TimeCST,TemperatureF,Dew PointF,Humidity,Sea Level PressureIn,VisibilityMPH,Wind Direction,Wind SpeedMPH,Gust SpeedMPH,PrecipitationIn,Events,Conditions,WindDirDegrees,DateUTC
12:11 AM,19.4,15.8,86,30.12,2.0,Calm,Calm,-,0.00,Snow,Light Snow,0,2012-12-28 06:11:00
12:46 AM,19.4,15.8,86,30.11,2.0,Calm,Calm,-,0.01,Snow,Light Snow,0,2012-12-28 06:46:00
12:55 AM,19.0,15.1,85,30.20,2.0,Calm,Calm,-,0.01,Snow,Light Snow,0,2012-12-28 06:55:00
1:10 AM,19.4,15.8,86,30.11,1.5,SSE,3.5,-,0.00,Snow,Light Snow,160,2012-12-28 07:10:00
1:18 AM,19.4,15.8,86,30.11,2.5,SSE,3.5,-,0.00,Snow,Light Snow,160,2012-12-28 07:18:00
1:48 AM,19.4,15.8,86,30.11,1.5,SSE,3.5,-,0.01,Snow,Light Snow,150,2012-12-28 07:48:00
1:55 AM,19.0,15.1,85,30.19,1.5,Calm,Calm,-,0.01,Snow,Light Snow,0,2012-12-28 07:55:00
2:29 AM,19.4,15.8,86,30.11,2.0,Calm,Calm,-,0.00,Snow,Light Snow,0,2012-12-28 08:29:00
2:55 AM,19.0,15.1,85,30.20,2.0,Calm,Calm,-,0.01,Snow,Light Snow,0,2012-12-28 08:55:00
3:03 AM,19.4,15.8,86,30.11,1.5,Calm,Calm,-,0.00,Snow,Light Snow,0,2012-12-28 09:03:00
3:55 AM,19.0,15.1,85,30.19,1.5,Calm,Calm,-,0.01,Snow,Light Snow,0,2012-12-28 09:55:00
4:19 AM,17.6,15.8,93,30.09,2.0,Calm,Calm,-,N/A,Snow,Light Snow,0,2012-12-28 10:19:00
4:55 AM,18.0,15.1,88,30.18,2.0,Calm,Calm,-,0.00,Snow,Light Snow,0,2012-12-28 10:55:00
5:55 AM,18.0,14.0,84,30.17,2.5,Calm,Calm,-,0.01,Snow,Light Snow,0,2012-12-28 11:55:00
6:22 AM,17.6,14.0,86,30.08,3.0,NE,3.5,-,0.00,Snow,Light Snow,40,2012-12-28 12:22:00
6:55 AM,17.1,14.0,88,30.17,3.0,Calm,Calm,-,0.00,Snow,Light Snow,0,2012-12-28 12:55:00
7:17 AM,17.6,12.2,79,30.08,2.5,Calm,Calm,-,N/A,Snow,Light Snow,0,2012-12-28 13:17:00
7:28 AM,17.6,14.0,86,30.07,1.8,NNE,3.5,-,0.00,Snow,Light Snow,30,2012-12-28 13:28:00
7:50 AM,17.6,12.2,79,30.07,0.8,NNE,3.5,-,0.01,Snow,Light Snow,30,2012-12-28 13:50:00
7:55 AM,17.1,12.9,84,30.16,0.8,NNE,3.5,-,0.01,Snow,Light Snow,30,2012-12-28 13:55:00
7:57 AM,17.6,12.2,79,30.07,6.0,NNE,3.5,-,0.00,Snow,Light Snow,30,2012-12-28 13:57:00
8:30 AM,17.6,14.0,86,30.07,1.8,NNE,3.5,-,0.00,Snow,Light Snow,30,2012-12-28 14:30:00
8:55 AM,18.0,14.0,84,30.16,1.0,NE,4.6,-,0.01,Snow,Light Snow,40,2012-12-28 14:55:00
9:12 AM,19.4,14.0,80,30.07,2.0,NE,4.6,-,0.00,Snow,Light Snow,40,2012-12-28 15:12:00
9:55 AM,19.0,15.1,85,30.16,2.0,NE,4.6,-,0.00,Snow,Light Snow,50,2012-12-28 15:55:00
10:34 AM,19.4,15.8,86,30.07,2.0,NE,3.5,-,0.01,Snow,Light Snow,50,2012-12-28 16:34:00
10:37 AM,19.4,15.8,86,30.06,1.8,NE,4.6,-,0.01,Snow,Light Snow,50,2012-12-28 16:37:00
10:53 AM,19.4,15.8,86,30.06,0.8,ENE,4.6,-,0.01,Snow,Light Snow,60,2012-12-28 16:53:00
10:55 AM,19.9,16.0,85,30.14,0.8,ENE,4.6,-,0.02,Snow,Light Snow,70,2012-12-28 16:55:00
11:14 AM,21.2,15.8,80,30.05,1.2,ENE,4.6,-,0.00,Snow,Light Snow,60,2012-12-28 17:14:00
11:38 AM,21.2,15.8,80,30.04,2.0,East,4.6,-,0.01,Snow,Light Snow,80,2012-12-28 17:38:00
11:47 AM,21.2,17.6,86,30.04,1.8,East,4.6,-,0.01,Snow,Light Snow,90,2012-12-28 17:47:00
11:55 AM,21.0,16.0,81,30.12,1.8,East,3.5,-,0.01,Snow,Light Snow,100,2012-12-28 17:55:00
11:59 AM,21.2,15.8,80,30.04,2.0,East,3.5,-,0.00,Snow,Light Snow,100,2012-12-28 17:59:00
12:08 PM,21.2,15.8,80,30.03,4.0,ESE,6.9,-,0.00,Snow,Light Snow,120,2012-12-28 18:08:00
12:16 PM,21.2,15.8,80,30.03,2.5,ESE,8.1,-,0.00,Snow,Light Snow,110,2012-12-28 18:16:00
12:55 PM,21.0,16.0,81,30.10,2.5,ESE,8.1,-,0.01,Snow,Light Snow,110,2012-12-28 18:55:00
1:02 PM,21.2,15.8,80,30.01,1.5,ESE,6.9,-,0.00,Snow,Light Snow,120,2012-12-28 19:02:00
1:36 PM,21.2,15.8,80,30.00,2.5,ESE,6.9,-,0.00,Snow,Light Snow,120,2012-12-28 19:36:00
1:55 PM,21.9,16.0,78,30.08,5.0,East,5.8,-,0.00,Snow,Light Snow,90,2012-12-28 19:55:00
2:13 PM,21.2,15.8,80,29.99,6.0,ESE,6.9,-,0.01,Snow,Light Snow,120,2012-12-28 20:13:00
2:35 PM,21.2,15.8,80,29.99,5.0,ESE,3.5,-,0.01,Snow,Light Snow,120,2012-12-28 20:35:00
2:55 PM,21.9,16.0,78,30.07,4.0,Calm,Calm,-,0.01,Snow,Light Snow,0,2012-12-28 20:55:00
3:55 PM,21.0,17.1,85,30.07,2.0,Calm,Calm,-,0.00,Snow,Light Snow,0,2012-12-28 21:55:00
4:16 PM,21.2,17.6,86,29.99,3.0,Calm,Calm,-,0.00,Snow,Light Snow,0,2012-12-28 22:16:00
4:55 PM,19.9,16.0,85,30.07,7.0,Calm,Calm,-,0.00,,Scattered Clouds,0,2012-12-28 22:55:00
5:55 PM,19.9,16.0,85,30.07,6.0,NNE,4.6,-,0.00,Snow,Light Snow,20,2012-12-28 23:55:00
6:55 PM,19.9,16.0,85,30.07,9.0,North,5.8,-,0.00,Snow,Light Snow,360,2012-12-29 00:55:00
7:08 PM,19.4,15.8,86,29.98,9.0,North,5.8,-,0.00,Snow,Light Snow,10,2012-12-29 01:08:00
7:44 PM,19.4,15.8,86,29.98,4.0,North,5.8,-,0.01,Snow,Light Snow,360,2012-12-29 01:44:00
7:55 PM,19.9,16.0,85,30.06,6.0,North,5.8,-,0.01,Snow,Light Snow,360,2012-12-29 01:55:00
8:55 PM,19.9,15.1,81,30.05,7.0,NE,3.5,-,0.00,Snow,Light Snow,40,2012-12-29 02:55:00
9:34 PM,19.4,15.8,86,29.97,9.0,Calm,Calm,-,0.00,Snow,Light Snow,0,2012-12-29 03:34:00
9:55 PM,19.0,15.1,85,30.05,8.0,Calm,Calm,-,0.00,Snow,Light Snow,0,2012-12-29 03:55:00
10:13 PM,19.4,15.8,86,29.96,9.0,Calm,Calm,-,0.00,Snow,Light Snow,0,2012-12-29 04:13:00
10:55 PM,19.0,15.1,85,30.05,6.0,North,3.5,-,0.00,Snow,Light Snow,360,2012-12-29 04:55:00
11:32 PM,17.6,14.0,86,29.95,9.0,Calm,Calm,-,0.00,Snow,Light Snow,0,2012-12-29 05:32:00
11:55 PM,16.0,12.0,84,30.04,9.0,Calm,Calm,-,0.00,Snow,Light Snow,0,2012-12-29 05:55:00